San Bernardino, CA

2:39 PM PST on December 06, 2019 (GMT -0800)
San Bernardino International

Weather History for KSBD - May, 2019

Change the Weather History Date:

Tuesday, May 14, 2019

  Actual Average Record
Temperature  
Mean Temperature 72 °F -  
Max Temperature 86 °F 80 °F 95 °F (2014)
Min Temperature 59 °F 52 °F 50 °F (2015)
Cooling Degree Days 8    
Growing Degree Days 22 (Base 50)    
Moisture  
Dew Point 54 °F    
Average Humidity 67    
Maximum Humidity 83    
Minimum Humidity 29    
Precipitation  
Precipitation 0.00 in - - ()
Sea Level Pressure  
Sea Level Pressure 30.00 in    
Wind  
Wind Speed 5 mph (WSW)    
Max Wind Speed 12 mph    
Max Gust Speed -    
Visibility 6 miles    
Events      
Averages and records for this station are not official NWS values.
T = Trace of Precipitation, MM = Missing Value Source: NWS Daily Summary

Daily Weather History Graph

Daily Weather History Graph

Search for Another Location

Airport or City:

Astronomy

May. 14, 2019 Rise Set
Actual Time 5:48 AM PDT 7:42 PM PDT
Civil Twilight 5:20 AM PDT 8:10 PM PDT
Nautical Twilight 4:47 AM PDT 8:44 PM PDT
Astronomical Twilight 4:11 AM PDT 9:19 PM PDT
Moon 3:25 PM PDT (5/14) 3:26 AM PDT (5/14)
Length of Visible Light 14h 50m
Length of Day
13h 54m
Waxing Gibbous, 80% of the Moon is Illuminated
May 14
Waxing Gibbous
May 18
Full
May 26
Last Quarter
Jun 3
New
Jun 9
First Quarter

Hourly Weather History & Observations

Time (PDT) Temp. Heat Index Dew Point Humidity Pressure Visibility Wind Dir Wind Speed Gust Speed Precip Events Conditions
12:00 AM 61.7 °F - 54.3 °F 77% 30.02 in 10.0 mi WSW 4.6 mph - N/A   Clear
12:20 AM 60.8 °F - 54.1 °F 79% 30.02 in 10.0 mi West 6.9 mph - N/A   Clear
12:40 AM 60.3 °F - 54.0 °F 80% 30.02 in 10.0 mi West 6.9 mph - N/A   Clear
1:00 AM 59.9 °F - 54.0 °F 81% 30.02 in 7.0 mi West 5.8 mph - N/A   Clear
1:20 AM 59.4 °F - 53.8 °F 82% 30.02 in 7.0 mi WSW 4.6 mph - N/A   Clear
1:40 AM 59.0 °F - 53.6 °F 82% 30.02 in 7.0 mi WSW 4.6 mph - N/A   Mostly Cloudy
2:00 AM 59.4 °F - 54.3 °F 83% 30.02 in 5.0 mi West 4.6 mph - N/A   Haze
2:20 AM 60.3 °F - 55.0 °F 83% 30.02 in 5.0 mi West 4.6 mph - N/A   Haze
2:40 AM 60.3 °F - 54.9 °F 82% 30.01 in 5.0 mi Calm Calm - N/A   Haze
3:00 AM 60.8 °F - 55.4 °F 82% 30.01 in 5.0 mi Calm Calm - N/A   Haze
3:20 AM 61.0 °F - 55.2 °F 81% 30.02 in 5.0 mi Calm Calm - N/A   Haze
3:40 AM 60.8 °F - 54.9 °F 81% 30.02 in 4.0 mi SSW 3.5 mph - N/A   Haze
4:00 AM 61.0 °F - 54.9 °F 80% 30.02 in 4.0 mi Calm Calm - N/A   Haze
4:20 AM 61.0 °F - 54.9 °F 80% 30.02 in 4.0 mi Calm Calm - N/A   Haze
4:40 AM 61.0 °F - 55.0 °F 81% 30.01 in 4.0 mi Calm Calm - N/A   Haze
5:00 AM 61.0 °F - 55.0 °F 81% 30.00 in 4.0 mi Calm Calm - N/A   Haze
5:20 AM 60.8 °F - 54.9 °F 81% 30.01 in 4.0 mi Calm Calm - N/A   Haze
5:40 AM 61.0 °F - 55.0 °F 81% 30.02 in 4.0 mi West 3.5 mph - N/A   Haze
7:00 AM 60.8 °F - 55.4 °F 82% 30.03 in 2.0 mi Calm Calm - N/A   Overcast
7:50 AM 62.6 °F - 55.4 °F 77% 30.02 in 1.0 mi Calm Calm - N/A   Overcast
8:45 AM 64.4 °F - 55.4 °F 73% 30.03 in 2.0 mi Calm Calm - N/A   Haze
9:50 AM 68.0 °F - 55.4 °F 64% 30.04 in 2.0 mi SW 3.5 mph - N/A   Haze
10:50 AM 71.6 °F - 55.4 °F 57% 30.04 in 2.0 mi SW 5.8 mph - N/A   Haze
11:47 AM 75.2 °F - 55.4 °F 50% 30.03 in 3.0 mi SSW 5.8 mph - N/A   Haze
12:50 PM 80.6 °F 80.3 °F 53.6 °F 39% 30.01 in 3.0 mi SW 5.8 mph - N/A   Haze
1:50 PM 82.4 °F - 50.0 °F 32% 29.99 in 3.0 mi WSW 5.8 mph - N/A   Haze
2:48 PM 84.2 °F - 48.2 °F 29% 29.92 in 3.0 mi West 9.2 mph - N/A   Haze
3:50 PM 86.0 °F - 50.0 °F 29% 29.94 in 3.0 mi SW 10.4 mph - N/A   Haze
4:50 PM 84.2 °F - 48.2 °F 29% 29.92 in 5.0 mi WSW 10.4 mph - N/A   Haze
5:47 PM 84.2 °F - 48.2 °F 29% 29.91 in 5.0 mi WSW 8.1 mph - N/A   Haze
6:55 PM 78.8 °F - 51.8 °F 39% 29.91 in 5.0 mi WSW 11.5 mph - N/A   Haze
7:50 PM 73.4 °F - 53.6 °F 50% 29.94 in 5.0 mi WSW 11.5 mph - N/A   Haze
8:50 PM 69.8 °F - 55.4 °F 60% 29.95 in 5.0 mi SW 9.2 mph - N/A   Haze
9:40 PM 68.0 °F - 54.7 °F 62% 29.97 in 10.0 mi WSW 3.5 mph - N/A   Clear
10:00 PM 66.6 °F - 54.5 °F 65% 29.97 in 10.0 mi WSW 5.8 mph - N/A   Clear
10:20 PM 66.2 °F - 54.3 °F 65% 29.97 in 10.0 mi West 6.9 mph - N/A   Clear
10:40 PM 65.5 °F - 54.5 °F 68% 29.98 in 10.0 mi WSW 10.4 mph - N/A   Clear
11:00 PM 64.8 °F - 54.5 °F 69% 29.98 in 10.0 mi West 6.9 mph - N/A   Clear
11:20 PM 64.4 °F - 54.7 °F 71% 29.98 in 10.0 mi WSW 6.9 mph - N/A   Clear
11:40 PM 63.7 °F - 54.5 °F 72% 29.98 in 10.0 mi WSW 5.8 mph - N/A   Clear